Dewpoint
55 55 54 54 55 55 55 55 55 55 55 55 55 55 55 55 55 55 56 56 56 56 56 56 56 56 56 55 55 54 56 52 48 49 44 38 48 52 61 58 62 64 70 67 65 60 58 56 60 65 64 63 62 60 63 64 65 65 60 58 55 55 55 58 58 59 59 61 63 65 65 64 62 66 67 68 66 66 65 65 65 66 65 65 66 66 67 68
55 55 54 54 55 55 55 55 55 54 54 55 55 54 55 55 55 55 55 56 55 56 56 56 56 57 56 54 54 55 54 52 48 48 43 45 56 56 61 61 64 62 69 63 56 50 53 52 57 64 62 61 60 61 63 62 64 63 61 59 55 56 56 59 60 61 61 61 64 65 66 65 64 66 67 63 64 64 64 64 65 64 65 66 66 66 67 68
55 55 54 54 55 55 55 54 54 55 54 55 54 55 55 55 55 55 55 56 55 56 56 56 56 57 56 54 54 57 54 50 51 47 46 60 58 58 61 63 65 65 61 58 52 48 45 51 59 62 61 58 60 60 62 62 63 62 61 56 57 60 59 61 60 62 63 64 64 64 66 65 66 66 68 64 62 64 62 61 62 62 63 64 65 65 67 67
55 54 54 54 55 55 54 54 54 54 54 54 54 54 55 55 54 54 55 55 55 55 56 56 56 57 56 55 55 56 54 49 41 43 49 66 61 61 61 64 67 65 60 57 51 45 51 55 60 60 58 57 57 59 60 61 61 62 60 56 58 59 58 59 62 64 64 65 65 65 66 64 67 67 68 65 62 62 64 63 62 62 63 63 64 65 66 66
54 54 54 54 54 54 54 54 54 54 54 54 54 54 54 54 54 54 55 55 55 55 55 56 56 58 56 55 57 55 49 37 27 45 49 69 63 64 62 65 66 63 57 48 46 49 51 54 56 55 58 55 56 56 57 60 61 60 59 60 60 60 58 61 61 64 64 65 66 66 64 64 69 67 67 64 61 60 64 65 65 63 63 63 63 64 65 65
54 53 53 54 54 54 54 54 54 54 54 54 54 54 54 54 54 54 54 54 55 55 55 56 57 57 57 58 56 54 40 11 35 34 71 68 63 64 64 67 67 57 47 45 43 49 51 51 50 52 54 54 55 57 57 56 59 56 56 57 59 59 59 61 60 65 64 66 66 65 65 67 66 65 67 64 66 67 66 66 66 65 64 64 64 64 65 64
53 53 53 53 54 54 54 54 54 54 54 54 54 54 54 54 54 54 54 54 54 55 55 56 56 57 58 57 54 51 35 29 39 57 68 65 63 64 68 67 65 51 45 41 43 46 49 49 45 48 53 53 52 57 52 56 55 55 53 54 55 56 57 59 58 63 64 66 66 66 67 65 65 62 66 64 68 68 67 67 65 65 65 65 64 64 64 64
53 53 53 54 54 53 53 54 53 53 54 54 54 54 54 54 54 54 54 55 55 55 55 56 56 57 57 53 50 29 29 16 31 62 67 65 60 64 67 52 51 46 41 40 39 43 48 47 41 49 49 52 52 56 52 50 51 52 52 53 52 52 55 53 56 62 63 64 67 67 64 63 65 65 66 64 68 67 67 66 66 65 65 64 64 64 65 65
53 53 53 54 53 53 54 54 54 54 54 54 54 54 54 54 54 54 55 55 55 55 55 56 56 58 58 54 33 18 8 30 38 64 63 60 62 63 52 45 46 44 39 39 37 44 45 47 46 43 42 52 51 55 53 50 48 49 50 50 50 49 49 49 55 61 63 65 66 64 64 65 66 67 65 66 67 68 66 66 65 65 64 64 64 64 65 65
53 53 54 53 53 53 53 53 53 54 54 54 54 54 54 54 54 54 55 55 55 55 55 56 57 58 56 48 40 7 21 43 64 61 56 61 61 59 54 45 44 40 37 36 38 43 40 47 44 48 46 52 48 50 51 51 48 49 48 48 46 45 44 45 51 62 63 64 65 63 63 65 66 64 62 68 69 68 66 65 66 65 63 64 64 64 65 65
53 54 54 53 53 53 53 53 54 54 54 54 54 54 54 54 54 54 55 55 55 56 56 56 58 57 47 47 24 5 35 62 65 54 59 60 58 56 51 43 40 39 37 35 37 37 36 46 46 43 45 46 45 45 45 47 44 40 39 37 36 36 52 54 54 62 63 64 64 63 64 65 66 65 63 66 68 66 65 64 64 63 64 63 64 64 65 66
53 53 53 53 53 53 53 53 53 54 54 54 54 54 54 54 54 54 55 55 55 56 56 57 59 55 50 39 34 24 43 61 59 55 58 58 54 52 49 43 39 37 36 35 35 35 38 44 42 41 38 43 39 43 44 40 35 35 34 35 38 47 58 59 60 62 61 62 63 64 64 63 63 61 63 66 68 65 64 63 63 62 63 63 64 63 64 65
53 53 53 53 53 53 53 54 54 54 53 54 54 54 54 54 54 54 54 55 55 56 57 58 58 52 49 34 34 37 44 57 52 54 51 50 52 53 48 42 39 36 36 36 33 34 32 39 40 42 36 36 41 40 37 36 34 34 35 35 34 40 55 61 62 63 61 63 63 62 55 56 59 62 65 67 66 64 63 63 62 62 62 62 63 63 64 65
53 53 52 53 53 53 53 54 54 53 53 54 53 53 54 55 55 55 54 55 55 57 57 59 56 51 47 36 38 41 41 50 51 50 48 49 49 53 49 45 40 39 36 35 34 32 30 32 35 36 34 35 38 37 34 35 35 36 33 39 36 38 43 60 61 62 60 64 63 62 53 51 59 62 65 66 65 63 62 62 62 62 61 62 62 63 64 64
52 52 53 53 53 53 54 53 53 54 53 53 53 53 54 55 57 55 55 55 56 58 59 59 55 52 43 40 45 47 59 55 46 45 50 45 49 50 51 47 42 41 38 36 35 33 31 30 32 36 38 35 36 37 36 36 37 32 36 36 31 37 49 59 61 61 58 62 63 60 54 53 54 60 65 65 65 63 62 62 62 62 62 62 62 62 62 63
53 53 53 53 53 53 53 53 53 53 54 53 53 53 54 58 57 56 57 56 58 60 57 52 52 51 44 37 51 60 50 48 50 51 51 44 45 45 52 49 45 42 39 38 36 34 32 31 33 34 36 35 38 40 37 37 35 30 34 32 30 41 40 55 61 60 60 61 62 59 54 56 57 61 64 65 64 62 62 62 61 62 63 62 62 62 62 63
53 53 53 53 53 53 53 53 53 53 53 53 53 52 55 58 57 57 58 60 59 58 53 50 52 52 32 39 42 39 41 41 48 55 54 54 49 51 49 48 45 43 41 40 36 34 33 31 29 34 32 33 37 37 37 38 37 34 30 33 26 26 42 39 60 60 60 61 59 60 57 55 57 61 64 65 63 63 62 61 62 62 62 62 62 61 61 63
53 53 53 53 53 53 53 53 53 53 53 52 52 52 52 58 59 59 59 59 58 57 57 54 51 43 29 28 30 36 37 38 35 51 55 54 52 49 47 47 46 42 40 38 36 31 31 29 28 33 34 36 36 37 38 37 37 34 32 32 25 26 46 47 49 58 59 59 58 59 58 58 58 61 62 64 63 63 62 62 61 61 62 62 61 61 61 62
53 53 54 53 53 53 53 53 53 53 52 52 53 54 56 58 53 53 54 55 46 42 30 43 39 33 19 28 37 38 37 39 36 54 52 51 51 48 48 47 43 39 36 32 31 31 29 30 27 29 33 36 38 37 37 33 35 32 29 28 27 25 32 42 46 58 59 58 57 57 56 56 58 60 62 63 63 63 63 63 62 62 62 62 62 62 61 63
53 54 53 53 53 54 53 53 53 52 52 50 48 52 48 37 30 35 46 49 38 28 32 33 43 43 39 34 33 34 36 28 26 24 52 51 48 46 45 43 42 41 34 28 32 31 28 27 25 28 32 36 37 38 37 36 32 33 31 30 29 29 27 29 28 35 59 57 56 56 57 56 58 59 61 62 63 63 63 62 62 62 62 61 61 61 61 62
54 54 54 53 54 54 54 53 53 52 51 50 48 39 32 32 24 21 30 30 36 38 35 34 39 36 27 34 35 29 21 20 16 29 51 51 45 44 43 43 41 39 35 33 30 33 30 30 26 30 34 36 37 38 36 36 33 34 33 33 31 30 27 28 28 43 57 52 48 56 57 57 57 58 60 62 62 61 61 62 62 62 62 62 61 61 61 62
54 54 53 54 53 53 53 53 52 52 50 48 44 34 35 36 36 34 32 27 30 30 34 34 32 34 34 35 37 30 24 17 13 20 31 43 43 33 38 42 41 37 37 32 33 30 27 25 29 34 35 37 37 36 36 36 34 32 34 33 32 31 29 27 33 28 51 52 44 51 51 50 53 57 59 61 61 62 62 62 62 62 63 62 62 61 61 62
54 54 54 54 53 53 53 52 51 51 49 45 39 35 37 39 39 40 33 29 28 29 28 28 27 28 28 28 27 33 22 16 10 14 31 28 40 24 36 39 39 37 35 31 26 28 26 24 34 37 38 37 35 33 32 32 31 31 31 33 32 29 26 24 26 47 51 44 40 50 47 46 51 56 58 61 61 62 63 63 63 64 63 63 62 62 61 60
54 54 54 53 53 53 53 51 51 48 46 43 41 37 39 40 40 32 30 28 27 32 26 27 26 26 25 21 24 26 17 15 9 8 37 25 27 20 30 35 38 36 33 32 29 26 28 32 38 39 39 39 37 35 34 35 34 31 31 32 33 30 30 29 25 26 46 49 51 49 44 45 51 51 55 59 61 61 62 63 63 63 63 64 63 62 62 61
54 54 54 53 53 52 51 51 45 44 46 43 41 41 41 42 43 38 30 30 28 29 31 27 29 26 23 15 19 18 12 9 10 12 40 21 27 24 22 36 35 35 35 36 33 30 33 37 39 38 38 38 38 36 36 36 35 34 31 32 33 31 32 27 27 26 25 22 43 47 35 34 51 53 52 56 60 60 62 62 62 63 63 63 62 62 62 61
54 54 54 53 53 52 51 43 42 45 44 36 38 40 42 42 41 42 31 28 18 18 23 22 19 19 16 12 14 11 8 8 11 12 30 32 40 24 31 32 34 32 36 37 35 32 31 36 38 37 37 37 37 37 36 36 35 34 34 32 32 31 30 30 27 27 25 23 40 47 28 25 41 46 52 56 58 59 61 61 61 63 63 62 62 62 62 61
54 54 54 53 52 51 44 36 46 46 37 36 39 42 42 42 47 35 30 25 16 16 15 13 13 16 16 13 9 9 3 10 14 18 19 24 28 21 27 28 27 31 36 36 35 33 34 34 34 36 36 36 35 36 34 35 35 33 32 31 31 30 30 29 29 28 28 28 26 43 37 31 29 39 51 56 57 58 60 60 61 61 63 62 62 61 62 61
54 53 53 52 51 50 48 48 45 37 35 37 43 43 44 46 43 35 29 20 15 21 9 14 11 15 12 10 10 6 9 11 16 17 19 20 29 21 26 27 30 31 33 34 28 32 33 33 33 33 34 33 34 34 34 34 34 33 32 30 29 29 29 29 29 28 25 24 26 33 45 37 40 41 55 57 56 57 58 59 61 61 62 62 62 61 62 61
53 53 53 52 51 50 50 49 46 37 39 43 44 44 44 44 34 30 26 15 16 15 14 9 16 13 11 8 9 12 8 14 16 17 20 21 22 19 21 19 23 23 26 33 28 27 23 30 33 32 32 31 32 32 33 33 32 32 30 28 28 28 27 28 27 26 28 26 23 32 40 31 29 39 53 58 56 55 56 58 59 61 62 62 62 62 62 62
53 53 52 51 50 50 50 49 47 45 48 47 46 47 44 37 33 27 23 12 17 9 14 14 13 11 12 6 11 17 19 19 19 20 20 20 22 21 19 20 13 23 27 24 31 27 15 23 33 24 29 29 31 32 33 33 32 31 27 27 25 24 26 28 25 29 32 26 26 24 37 30 21 41 52 53 46 47 46 52 59 61 61 62 62 62 62 62
53 51 51 50 49 47 47 42 42 46 48 48 48 40 37 36 28 23 14 13 18 14 15 14 13 14 9 6 12 18 19 20 20 20 19 21 21 23 22 17 21 12 16 16 25 15 13 20 19 19 26 17 21 19 27 32 31 29 28 28 27 27 28 30 28 32 24 22 30 25 36 37 21 39 44 47 49 50 52 51 51 57 61 61 62 62 62 62
51 50 50 50 49 48 40 37 39 46 49 49 44 37 32 18 21 17 16 23 11 12 13 14 14 15 17 18 18 18 17 19 20 20 19 20 21 21 22 22 23 17 12 16 17 17 11 13 15 14 38 16 15 15 19 28 30 28 26 27 24 27 24 23 24 22 22 21 24 26 39 35 34 42 42 44 48 52 53 53 53 53 53 60 61 62 62 62
50 49 49 50 51 49 48 47 50 50 50 46 40 37 26 22 15 18 21 15 12 16 13 17 14 14 15 16 16 18 20 18 20 21 21 21 20 21 22 22 22 17 17 18 14 17 13 16 15 14 14 19 16 14 16 19 27 27 27 27 26 23 21 21 22 25 23 22 19 29 37 34 37 40 43 43 47 52 53 54 54 55 56 56 60 62 62 62
50 49 51 51 51 50 50 53 51 50 48 43 35 24 22 16 17 27 20 16 14 17 15 15 15 16 16 14 16 15 17 19 21 21 21 21 21 21 22 22 23 21 20 18 13 16 15 14 14 15 12 16 16 15 14 16 23 25 26 24 25 26 20 21 20 18 17 21 20 27 29 33 28 37 42 46 47 53 53 53 55 56 56 57 58 61 62 61
49 50 51 52 52 52 52 51 52 51 46 30 23 22 18 18 21 17 17 17 19 17 13 15 16 16 16 17 19 17 18 17 19 21 21 21 20 22 22 21 24 24 22 17 17 21 16 14 13 17 16 16 15 17 17 14 16 20 21 24 24 22 28 17 22 19 20 18 21 33 29 26 35 39 48 52 52 53 53 54 54 55 56 57 58 60 61 61
50 51 51 49 47 39 51 52 51 49 32 26 22 22 16 18 17 18 16 22 19 15 15 16 16 15 17 18 21 20 20 19 19 20 20 21 22 22 23 23 23 25 22 18 19 15 23 13 14 18 19 16 17 19 18 18 17 19 20 21 21 21 22 29 27 23 22 21 20 32 24 32 34 34 46 51 52 51 52 53 53 54 55 57 57 58 60 61
51 50 41 39 34 41 52 51 50 41 35 25 22 19 20 21 20 20 23 20 19 17 17 13 14 16 17 18 21 22 20 20 20 20 20 21 20 22 24 24 25 26 26 22 20 20 18 12 15 15 13 16 19 19 17 19 18 19 18 19 20 23 21 26 17 26 20 14 20 23 29 33 33 25 47 51 51 50 51 52 53 54 55 55 56 57 59 60
50 50 48 36 33 42 52 51 44 39 33 26 24 28 22 19 22 22 23 22 18 19 18 18 18 19 18 20 20 23 23 18 20 21 19 21 18 23 25 25 25 26 27 26 20 23 21 12 12 16 16 16 20 17 16 18 18 18 17 19 18 20 21 29 28 18 17 16 20 31 33 37 42 42 48 50 50 50 51 51 52 53 54 55 55 56 58 59
50 37 31 29 34 39 49 47 35 35 27 24 26 25 21 21 22 24 25 23 20 19 18 19 18 21 20 19 21 23 24 17 22 22 21 21 18 24 27 27 25 28 27 26 22 26 24 14 12 15 17 16 19 18 18 16 17 17 19 16 17 22 32 24 25 27 26 23 24 28 33 33 43 42 48 50 51 51 51 49 50 51 53 55 55 56 57 58
42 37 25 30 35 38 43 43 27 30 25 21 22 20 22 20 22 25 26 24 21 20 20 20 21 21 22 21 21 22 24 24 23 22 22 23 20 25 27 29 28 28 27 28 26 27 21 27 14 13 18 18 16 16 14 15 14 15 16 16 17 20 20 23 24 25 23 25 24 28 28 36 43 48 50 50 51 51 51 50 49 50 51 53 55 55 57 58
41 34 31 33 36 39 34 28 29 25 24 26 23 24 26 21 24 26 27 26 24 25 22 22 21 20 21 22 22 24 24 24 24 22 22 23 25 23 28 28 29 28 28 28 24 28 25 19 16 18 16 16 15 18 17 16 15 14 13 13 14 17 23 21 22 22 24 26 24 27 30 38 41 49 50 49 50 51 50 51 49 49 50 52 54 55 57 58
40 28 26 32 37 32 28 23 26 31 23 23 22 22 29 34 25 26 27 28 26 25 26 25 25 25 24 24 24 26 26 25 25 24 25 24 26 26 27 29 30 29 28 25 25 28 27 28 22 18 17 17 18 20 23 19 18 18 16 14 14 15 19 25 21 23 24 24 28 34 33 35 40 49 50 50 50 49 49 50 49 49 50 51 52 53 56 58
37 27 34 39 37 28 25 24 31 27 23 21 21 25 23 26 26 27 27 29 24 27 26 25 26 25 26 25 25 24 26 24 26 24 25 26 25 27 29 30 31 31 31 27 30 25 40 25 22 20 22 20 21 21 23 20 19 17 17 19 15 15 16 19 23 26 25 26 31 31 34 32 37 50 50 50 50 48 49 49 49 48 49 50 52 53 55 57
45 36 34 34 35 31 25 23 23 23 23 24 24 24 24 26 27 27 27 29 28 25 26 27 26 28 27 28 26 22 27 22 26 26 25 29 24 29 29 30 32 28 31 29 31 28 20 27 28 21 21 21 19 21 20 20 19 18 17 19 20 16 18 20 27 30 26 22 20 29 29 30 37 50 49 49 48 47 47 48 48 48 49 50 51 52 53 55
44 42 45 38 36 31 24 26 26 24 24 24 24 24 24 25 25 27 28 28 30 29 28 26 29 28 27 29 28 28 28 26 25 28 26 28 25 32 28 29 31 30 30 36 40 36 26 27 27 10 11 13 16 15 18 19 20 18 21 19 20 19 18 22 23 28 24 28 31 29 25 29 42 49 48 48 48 48 48 47 48 48 49 49 51 52 52 53
32 28 32 28 32 30 31 34 27 25 27 29 25 24 24 23 23 24 27 27 30 29 29 28 29 29 29 27 26 26 25 27 26 26 28 25 27 28 32 30 27 31 36 40 38 32 29 30 31 29 20 16 24 27 23 27 20 16 20 19 18 20 19 22 26 24 21 24 26 28 25 30 39 44 47 47 47 47 46 47 47 48 48 49 51 53 52 52
39 35 35 32 34 28 28 30 31 30 26 30 27 25 24 25 25 23 27 24 29 29 29 31 32 27 28 28 28 25 27 24 28 28 29 26 28 28 33 30 26 33 40 32 36 31 33 26 26 29 27 24 24 24 23 23 20 21 20 19 19 19 22 19 14 19 29 23 22 31 33 26 36 44 46 47 47 47 47 47 48 48 48 48 49 52 54 52
34 36 37 38 24 27 29 27 31 33 34 30 30 29 25 24 24 25 24 29 30 33 25 30 30 31 31 29 30 25 28 29 30 27 30 31 30 26 24 27 26 35 33 26 31 29 28 22 23 23 23 24 24 24 23 21 22 23 21 20 19 19 20 18 22 19 23 20 25 33 34 31 40 44 46 46 47 46 46 47 48 48 48 48 49 48 49 52
40 40 39 41 28 31 31 31 33 29 30 35 33 29 27 25 23 24 25 24 26 28 33 27 30 32 32 34 32 30 35 23 24 32 31 28 30 30 24 28 27 27 27 26 29 36 30 24 24 24 24 24 25 24 24 21 21 19 19 19 19 19 18 18 19 20 20 25 23 30 32 36 43 45 46 46 47 46 47 48 49 48 47 49 48 47 47 49
42 38 30 37 40 39 38 32 34 30 28 37 28 30 27 29 24 25 25 28 26 28 30 29 30 33 33 32 35 27 29 29 28 25 31 30 29 33 29 30 27 27 28 27 29 32 31 32 27 23 22 24 25 25 24 21 22 19 17 17 18 20 20 18 20 24 25 22 20 19 28 40 45 48 48 47 48 47 47 46 48 49 47 47 47 47 47 48
46 47 47 42 33 37 41 34 34 34 30 34 30 33 33 30 25 27 27 29 28 28 28 28 30 30 30 31 31 29 32 33 32 26 31 30 25 31 28 30 29 29 31 29 29 29 29 27 28 26 20 22 24 22 21 20 20 20 18 18 19 19 17 24 29 42 38 31 36 27 27 36 45 47 48 48 48 48 47 46 46 49 47 47 47 47 47 48
49 49 46 44 35 39 33 34 34 33 29 33 37 35 32 31 31 29 28 32 35 33 31 29 33 28 32 30 30 30 29 32 29 29 33 28 28 30 30 29 28 31 31 30 34 27 30 27 21 23 12 20 24 25 22 21 15 10 15 22 24 26 29 34 40 44 43 44 38 28 34 42 45 46 46 46 46 47 46 45 46 48 49 47 47 47 47 47